sat.trackr.live / text

‹ back to catalog

STARLETTE

NORAD 7646 · 1975-010A

PAYLOAD ACTIVE UNKNOWN

§ Identity

Operator
Country
FR
Launch date
1975-02-06
Launch site
FRGUI
Launch vehicle
Mass (kg)
RCS (m²)
0.17

Purposes: science

External: N2YO · Heavens-Above · Gunter

§ Orbital elements

Epoch: 2026-09-14T21:04:54.306912Z

Period
104.17 min
Inclination
49.8230°
Eccentricity
0.0205628
Mean motion
13.82351607 rev/d
Perigee alt
804.8 km
Apogee alt
1,106.4 km
Semi-major
7,333.7 km
B*
2.5082e-6
RAAN
110.5688°
Arg perigee
359.3475°
Mean anomaly
0.7123°
Rev number
60,694

§ Raw data

STARLETTE1 07646U 75010A   26257.87840633 -.00000141  00000+0  25082-5 0  99952 07646  49.8230 110.5688 0205628 359.3475   0.7123 13.82351607606943

JSON: /api/v1/satellites/7646 · /tle

For live sub-satellite position, see the globe view (requires WebGL).

§ Visibility from observer

Set your observer location to see the next 7 days of passes ≥ 10°. The values pass through the URL so the page stays shareable.

No JS? Fill the form by hand. The geolocation button needs JavaScript.